TimeICT,TemperatureF,Dew PointF,Humidity,Sea Level PressureIn,VisibilityMPH,Wind Direction,Wind SpeedMPH,Gust SpeedMPH,PrecipitationIn,Events,Conditions,WindDirDegrees,DateUTC
12:00 AM,73.4,62.6,69,29.95,5.0,ENE,8.1,-,N/A,,Scattered Clouds,70,2014-01-23 17:00:00
12:30 AM,73.4,62.6,69,29.95,5.0,ENE,8.1,-,N/A,,Scattered Clouds,70,2014-01-23 17:30:00
1:00 AM,74,66,68,29.92,5,ENE,5.8,,,,Mist,70,2014-01-23 18:00:00
1:00 AM,73.4,62.6,69,29.95,5.0,ENE,8.1,-,N/A,,Scattered Clouds,70,2014-01-23 18:00:00
1:30 AM,73.4,62.6,69,29.95,5.0,ENE,11.5,-,N/A,,Scattered Clouds,70,2014-01-23 18:30:00
2:00 AM,73.4,62.6,69,29.92,-9999.0,North,-9999.0,-,N/A,,Scattered Clouds,0,2014-01-23 19:00:00
2:30 AM,73.4,62.6,69,29.92,4.3,ENE,9.2,-,N/A,,Scattered Clouds,70,2014-01-23 19:30:00
3:00 AM,73.4,62.6,69,29.89,4.3,ENE,10.4,-,N/A,,Scattered Clouds,70,2014-01-23 20:00:00
4:00 AM,74,65,67,29.86,5,ENE,4.6,,,,Mist,70,2014-01-23 21:00:00
4:00 AM,73.4,62.6,69,29.89,4.3,ENE,8.1,-,N/A,,Scattered Clouds,60,2014-01-23 21:00:00
5:00 AM,71.6,62.6,73,29.89,4.3,NE,6.9,-,N/A,,Scattered Clouds,50,2014-01-23 22:00:00
6:00 AM,71.6,62.6,73,29.92,4.3,ENE,6.9,-,N/A,,Scattered Clouds,60,2014-01-23 23:00:00
6:30 AM,71.6,44.6,38,29.92,3.1,ENE,5.8,-,N/A,,Scattered Clouds,70,2014-01-23 23:30:00
7:00 AM,73,65,69,29.90,3,ENE,3.5,,,,Mist,70,2014-01-24 00:00:00
7:00 AM,71.6,62.6,73,29.92,3.1,ENE,8.1,-,N/A,,Mostly Cloudy,60,2014-01-24 00:00:00
7:30 AM,73.4,64.4,73,29.92,3.1,ENE,5.8,-,N/A,,Mostly Cloudy,70,2014-01-24 00:30:00
8:00 AM,75.2,62.6,65,29.95,3.1,ENE,11.5,-,N/A,,Mostly Cloudy,70,2014-01-24 01:00:00
8:30 AM,75.2,64.4,69,29.95,3.1,ENE,9.2,-,N/A,,Mostly Cloudy,70,2014-01-24 01:30:00
9:00 AM,77.0,64.4,65,29.95,3.1,ENE,9.2,-,N/A,,Haze,70,2014-01-24 02:00:00
9:30 AM,78.8,64.4,61,29.95,3.1,East,12.7,-,N/A,,Haze,80,2014-01-24 02:30:00
10:00 AM,80,65,51,29.93,3,East,9.2,,,,Haze,80,2014-01-24 03:00:00
10:00 AM,80.6,64.4,58,29.95,3.1,ENE,12.7,-,N/A,,Haze,70,2014-01-24 03:00:00
10:30 AM,80.6,64.4,58,29.95,3.1,East,13.8,-,N/A,,Haze,80,2014-01-24 03:30:00
11:00 AM,82.4,62.6,51,29.92,3.1,East,12.7,-,N/A,,Haze,80,2014-01-24 04:00:00
11:30 AM,82.4,62.6,51,29.92,3.1,East,11.5,-,N/A,,Haze,80,2014-01-24 04:30:00
12:00 PM,84.2,64.4,51,29.89,3.1,East,11.5,-,N/A,,Haze,80,2014-01-24 05:00:00
12:30 PM,84.2,64.4,51,29.89,3.1,East,11.5,-,N/A,,Haze,100,2014-01-24 05:30:00
1:00 PM,85,67,46,29.89,3,East,11.5,,,,Haze,100,2014-01-24 06:00:00
1:00 PM,86.0,64.4,48,29.89,3.1,East,12.7,-,N/A,,Haze,100,2014-01-24 06:00:00
1:30 PM,86.0,68.0,55,29.86,3.1,Variable,4.6,-,N/A,,Haze,0,2014-01-24 06:30:00
2:00 PM,84.2,66.2,55,29.86,3.1,Variable,4.6,-,N/A,,Haze,0,2014-01-24 07:00:00
2:30 PM,84.2,66.2,55,29.86,3.1,Variable,2.3,-,N/A,,Haze,0,2014-01-24 07:30:00
3:00 PM,84.2,64.4,51,29.83,3.1,Variable,3.5,-,N/A,,Haze,0,2014-01-24 08:00:00
3:30 PM,84.2,64.4,51,29.83,3.1,West,10.4,-,N/A,,Haze,280,2014-01-24 08:30:00
4:00 PM,85,67,46,29.81,3,WNW,8.1,,,,Haze,300,2014-01-24 09:00:00
4:00 PM,84.2,64.4,51,29.83,3.1,West,10.4,-,N/A,,Haze,280,2014-01-24 09:00:00
4:30 PM,82.4,64.4,54,29.83,3.1,West,10.4,-,N/A,,Haze,280,2014-01-24 09:30:00
5:00 PM,82.4,64.4,54,29.83,3.1,West,10.4,-,N/A,,Haze,280,2014-01-24 10:00:00
5:30 PM,82.4,66.2,58,29.83,3.1,WNW,9.2,-,N/A,,Haze,300,2014-01-24 10:30:00
6:00 PM,80.6,66.2,61,29.86,3.1,WNW,8.1,-,N/A,,Haze,290,2014-01-24 11:00:00
6:30 PM,80.6,66.2,61,29.86,3.1,WNW,6.9,-,N/A,,Haze,290,2014-01-24 11:30:00
7:00 PM,82,69,56,29.84,3,Calm,Calm,,,,Haze,,2014-01-24 12:00:00
7:00 PM,78.8,66.2,65,29.86,3.1,WNW,6.9,-,N/A,,Haze,290,2014-01-24 12:00:00
7:30 PM,78.8,64.4,61,29.89,3.1,WNW,5.8,-,N/A,,Haze,290,2014-01-24 12:30:00
8:00 PM,77.0,66.2,69,29.89,3.1,WNW,3.5,-,N/A,,Mostly Cloudy,300,2014-01-24 13:00:00
8:30 PM,73.4,66.2,78,29.89,4.3,Variable,1.2,-,N/A,,Mostly Cloudy,0,2014-01-24 13:30:00
9:00 PM,73.4,66.2,78,29.92,4.3,Calm,Calm,-,N/A,,Mostly Cloudy,0,2014-01-24 14:00:00
9:30 PM,71.6,66.2,83,29.92,4.3,Calm,Calm,-,N/A,,Mostly Cloudy,0,2014-01-24 14:30:00
10:00 PM,74,68,75,29.90,4,Calm,Calm,,,,Mist,,2014-01-24 15:00:00
10:00 PM,71.6,66.2,83,29.92,4.3,Variable,2.3,-,N/A,,Mostly Cloudy,0,2014-01-24 15:00:00
10:30 PM,75.2,66.2,73,29.92,5.0,East,5.8,-,N/A,,Mostly Cloudy,90,2014-01-24 15:30:00
11:00 PM,77.0,66.2,69,29.92,5.0,ENE,8.1,-,N/A,,Mostly Cloudy,60,2014-01-24 16:00:00
11:30 PM,77.0,66.2,69,29.92,5.0,ENE,9.2,-,N/A,,Mostly Cloudy,70,2014-01-24 16:30:00